TimeEST,TemperatureF,Dew PointF,Humidity,Sea Level PressureIn,VisibilityMPH,Wind Direction,Wind SpeedMPH,Gust SpeedMPH,PrecipitationIn,Events,Conditions,WindDirDegrees,DateUTC
12:53 AM,23.0,21.0,92,30.30,1.0,ESE,9.2,-,0.00,Rain,Light Freezing Rain,110,2013-12-09 05:53:00
1:15 AM,24.1,21.9,91,30.20,0.8,ESE,12.7,-,0.00,Rain,Light Freezing Rain,110,2013-12-09 06:15:00
1:53 AM,24.1,21.9,91,30.27,0.8,ESE,11.5,-,0.00,Rain,Light Freezing Rain,110,2013-12-09 06:53:00
2:12 AM,24.1,21.9,91,30.17,1.0,ESE,13.8,-,0.00,Rain,Light Freezing Rain,110,2013-12-09 07:12:00
2:53 AM,25.0,23.0,92,30.24,1.0,ESE,11.5,-,0.00,Rain,Light Freezing Rain,110,2013-12-09 07:53:00
3:53 AM,25.0,23.0,92,30.20,1.2,East,12.7,-,0.00,Rain,Light Freezing Rain,100,2013-12-09 08:53:00
4:53 AM,26.1,24.1,92,30.19,2.0,ESE,15.0,24.2,0.00,Rain,Light Freezing Rain,110,2013-12-09 09:53:00
5:03 AM,26.1,24.1,92,30.09,1.8,ESE,13.8,21.9,0.00,Rain,Light Freezing Rain,110,2013-12-09 10:03:00
5:25 AM,26.1,24.1,92,30.08,2.5,East,13.8,23.0,0.00,Rain,Light Freezing Rain,100,2013-12-09 10:25:00
5:43 AM,27.0,25.0,92,30.09,1.5,East,11.5,-,0.00,Rain,Light Freezing Rain,100,2013-12-09 10:43:00
5:53 AM,27.0,25.0,92,30.16,1.5,ESE,13.8,-,0.00,Rain,Light Freezing Rain,110,2013-12-09 10:53:00
6:06 AM,27.0,25.0,92,30.08,2.5,East,13.8,-,0.00,Rain,Light Freezing Rain,100,2013-12-09 11:06:00
6:19 AM,27.0,25.0,92,30.07,3.0,ESE,13.8,-,0.00,Rain,Light Freezing Rain,110,2013-12-09 11:19:00
6:27 AM,27.0,25.0,92,30.07,1.8,East,11.5,-,0.00,Rain,Light Freezing Rain,100,2013-12-09 11:27:00
6:50 AM,26.6,24.8,93,30.06,0.8,ESE,15.0,-,0.00,Rain,Light Freezing Rain,110,2013-12-09 11:50:00
6:53 AM,27.0,25.0,92,30.14,0.8,East,11.5,-,0.00,Rain,Light Freezing Rain,100,2013-12-09 11:53:00
7:23 AM,27.0,26.1,96,30.07,1.0,ESE,9.2,-,0.00,Rain,Light Freezing Rain,110,2013-12-09 12:23:00
7:49 AM,28.4,26.6,93,30.05,2.5,East,12.7,20.7,0.00,Rain,Light Freezing Rain,100,2013-12-09 12:49:00
7:53 AM,28.0,26.1,92,30.13,2.5,East,15.0,20.7,0.00,Rain,Light Freezing Rain,100,2013-12-09 12:53:00
8:09 AM,28.0,26.1,92,30.03,1.0,ESE,13.8,-,0.00,Rain,Light Freezing Rain,110,2013-12-09 13:09:00
8:16 AM,28.0,26.1,92,30.02,0.5,ESE,11.5,20.7,0.00,Fog-Rain,Light Freezing Rain,110,2013-12-09 13:16:00
8:53 AM,28.0,27.0,96,30.10,0.8,ESE,10.4,-,0.00,Rain,Light Freezing Rain,110,2013-12-09 13:53:00
9:45 AM,28.9,28.0,96,30.03,1.0,ESE,9.2,-,0.00,Rain,Light Freezing Rain,120,2013-12-09 14:45:00
9:53 AM,28.9,28.0,96,30.11,1.0,ESE,8.1,-,0.00,Rain,Light Freezing Rain,120,2013-12-09 14:53:00
10:09 AM,30.0,28.0,92,30.02,0.8,East,6.9,-,0.00,Rain,Light Freezing Rain,90,2013-12-09 15:09:00
10:42 AM,30.0,28.0,92,30.00,0.8,ESE,6.9,-,0.00,,Overcast,120,2013-12-09 15:42:00
10:53 AM,30.0,28.9,96,30.07,0.5,ESE,6.9,-,0.00,Fog,Light Freezing Fog,120,2013-12-09 15:53:00
11:53 AM,30.9,28.9,92,30.03,0.5,SE,5.8,-,N/A,Fog,Light Freezing Fog,130,2013-12-09 16:53:00
12:53 PM,32.0,30.9,96,30.01,0.5,Calm,Calm,-,N/A,Fog,Fog,0,2013-12-09 17:53:00
1:21 PM,33.1,32.0,96,29.92,0.2,South,3.5,-,N/A,Fog,Fog,170,2013-12-09 18:21:00
1:53 PM,33.1,32.0,96,29.99,0.2,SW,4.6,-,N/A,Fog,Fog,220,2013-12-09 18:53:00
2:14 PM,33.1,32.0,96,29.92,0.2,West,5.8,-,N/A,Fog,Fog,260,2013-12-09 19:14:00
2:53 PM,33.1,32.0,96,29.98,0.5,West,8.1,-,N/A,Fog,Fog,270,2013-12-09 19:53:00
3:25 PM,33.1,32.0,96,29.91,1.5,West,8.1,-,N/A,,Overcast,260,2013-12-09 20:25:00
3:37 PM,33.1,32.0,96,29.90,2.0,West,10.4,-,N/A,,Overcast,260,2013-12-09 20:37:00
3:48 PM,33.8,32.0,93,29.90,1.8,West,10.4,-,N/A,,Overcast,270,2013-12-09 20:48:00
3:53 PM,33.1,32.0,96,29.97,2.0,West,10.4,-,N/A,,Overcast,270,2013-12-09 20:53:00
4:02 PM,33.1,32.0,96,29.90,6.0,West,11.5,-,N/A,,Overcast,270,2013-12-09 21:02:00
4:50 PM,33.8,30.2,87,29.90,10.0,West,16.1,25.3,N/A,,Overcast,280,2013-12-09 21:50:00
4:53 PM,33.1,30.9,92,29.96,10.0,West,16.1,25.3,N/A,,Overcast,280,2013-12-09 21:53:00
5:33 PM,33.1,30.9,92,29.90,10.0,West,13.8,24.2,N/A,,Overcast,280,2013-12-09 22:33:00
5:53 PM,33.1,30.9,92,29.97,10.0,West,16.1,24.2,N/A,,Overcast,280,2013-12-09 22:53:00
6:53 PM,33.1,28.9,85,29.98,10.0,WNW,24.2,33.4,N/A,,Overcast,300,2013-12-09 23:53:00
7:53 PM,32.0,28.9,88,29.99,10.0,WNW,21.9,32.2,N/A,,Mostly Cloudy,300,2013-12-10 00:53:00
8:38 PM,30.9,28.0,89,29.92,10.0,WNW,20.7,28.8,N/A,,Partly Cloudy,290,2013-12-10 01:38:00
8:53 PM,30.9,27.0,85,29.99,10.0,WNW,20.7,28.8,N/A,,Partly Cloudy,290,2013-12-10 01:53:00
9:48 PM,30.2,26.6,86,29.92,10.0,WNW,15.0,26.5,N/A,,Mostly Cloudy,300,2013-12-10 02:48:00
9:53 PM,30.9,27.0,85,29.99,10.0,WNW,15.0,23.0,N/A,,Mostly Cloudy,290,2013-12-10 02:53:00
10:29 PM,30.9,27.0,85,29.92,10.0,WNW,16.1,24.2,N/A,,Scattered Clouds,290,2013-12-10 03:29:00
10:53 PM,30.9,27.0,85,29.99,10.0,WNW,16.1,26.5,N/A,,Partly Cloudy,290,2013-12-10 03:53:00
11:35 PM,30.0,27.0,88,29.92,9.0,WNW,16.1,23.0,N/A,,Mostly Cloudy,290,2013-12-10 04:35:00
11:53 PM,30.0,26.1,85,29.98,10.0,West,11.5,20.7,N/A,,Overcast,280,2013-12-10 04:53:00